Terminal Aerodrome Forecast
Issued by NWS

Home | Current Version | Previous Version | Text Only | Print | Product List | Glossary On
Versions: 1 2 3 4 5 6 7 8 9 10 11 12 13 14 15 16 17 18 19 20 21 22 23
000
FTUS41 KCAR 242300
TAFPQI
TAF
KPQI 242335Z 2500/2524 35008KT 6SM -SHRA OVC035
     FM250300 35008KT P6SM VCSH OVC035
     FM250600 34007KT P6SM OVC028
     FM251600 VRB03KT P6SM BKN035
      AMD LTD TO CLD VIS AND WIND=

USA.gov is the U.S. government's official web portal to all federal, state and local government web resources and services.